Flight Information

DEPARTURE
SAN DIEGO, CA
Elevation:
526
Runways:
8L/26R - 7972x150 - ASPH-CONC-G
8R/26L - 3185x75 - ASPH-G
Active PE Departure:
26L - 26R
Current PE ATIS:
F
Altimeter:
30.06
Remarks:
ATIS:
132.35 619-661-0152
Clearance Delivery:
124.4
Ground:
124.4
Tower:
128.25
DESTINATION
,
Elevation:
TPA:
1000 (est.)


6748.4 NM75° True-13° Var61° HDG

Flight Plan:
(click to file on line)

1. Type
2. Aircraft Identification
3. Aircraft Type / Special Equipment
4. True Airspeed
kts
5. Departure Airport
(ICAO code)
6. Arriving Airport
(ICAO code)
7. Cruising Altitude
ft
8. Alternate Airport
(ICAO code)
9. Route of Flight
10. Remarks


00:00:00 Departure ATIS: Destination ATIS:

Clearance Limit:
Route:
Altitude: Expect in minutes
Frequency:
Transponder: (7500 Hijack / 7600 Lost Comms / 7700 Emergency)


KSDM 211753Z 31006KT 10SM CLR 33/13 A3006 RMK AO2 SLP172 T03330133 10333 20156 50003
Time: 2021-09-21T17:53:00Z
1632248670
Winds: 310 @ 6 kts
Visibility: 10.0 sm
Clouds (AGL): CLR
Temperature: 33.3 C
Dew Point: 13.3 C
Pressure: 30.059055 in Hgbr


Notes:

Data extracted from FAA Digital Chart Supplement. Effective: 0901Z Thursday, AUG 12, 2021 to 0901Z Thursday, OCT 7, 2021
Current ATIS data is provided courtisy of PilotEdge.